Flight Track Log - Related Links

Times and Time Zones

All times are in EDT time to prevent confusion due to time zone crossing. See the LOF3416 flight status page for this flight to view local times or setup timezone preferences in your user account.

Time Position Orientation Groundspeed Altitude Reporting Facility
EDT Latitude Longitude Course Direction KTS MPH feet Rate Location/Type
21:46 41.9167 -87.9167 169° South 185 213 2,600  Level Chicago TRACON
21:47 41.8500 -87.9000 169° South 219 252 4,700 1,868 Climbing Chicago TRACON
21:48 41.8167 -87.9267 211° Southwest 225 259 5,900 2,176 Climbing Chicago Center
21:49 41.7539 -87.9650 204° Southwest 247 284 8,400 2,244 Climbing Chicago Center
21:50 41.6878 -88.0067 205° Southwest 260 299 10,500 1,707 Climbing Chicago Center
21:51 41.6175 -88.0500 205° Southwest 275 316 11,900 1,463 Climbing Chicago Center
21:52 41.5406 -88.0969 205° Southwest 304 350 13,500 1,756 Climbing Chicago Center
21:53 41.4478 -88.1533 204° Southwest 313 360 15,500 1,707 Climbing Chicago Center
21:54 41.3675 -88.1986 203° Southwest 324 373 17,000 1,721 Climbing Chicago Center
21:55 41.2836 -88.2350 198° South 323 372 19,000 2,049 Climbing Chicago Center
21:56 41.2025 -88.2725 199° South 314 361 21,200 1,902 Climbing Chicago Center
21:57 41.1253 -88.3075 199° South 301 346 22,900 1,805 Climbing Chicago Center
21:58 41.0344 -88.3481 199° South 292 336 24,900 1,776 Climbing Chicago Center
21:59 40.9608 -88.3806 198° South 284 327 26,600 1,488 Climbing Chicago Center
22:00 40.8908 -88.4128 199° South 272 313 28,000 683 Climbing Chicago Center
22:01 40.8228 -88.4606 208° Southwest 288 331 28,000  Level Chicago Center
22:02 40.7650 -88.5469 229° Southwest 314 361 28,000  Level Chicago Center
22:03 40.7039 -88.6392 229° Southwest 332 382 28,000  Level Chicago Center
22:04 40.6264 -88.7550 229° Southwest 350 403 28,000  Level Chicago Center
22:05 40.5583 -88.8539 228° Southwest 362 417 28,000  Level Chicago Center
22:06 40.4997 -88.9392 228° Southwest 367 422 28,000  Level Chicago Center
22:07 40.4175 -89.0617 229° Southwest 370 426 28,000  Level Chicago Center
22:08 40.3478 -89.1622 228° Southwest 370 426 28,000  Level Chicago Center
22:09 40.2778 -89.2636 228° Southwest 372 428 28,000  Level Chicago Center
22:10 40.2081 -89.3633 228° Southwest 371 427 28,000  Level Chicago Center
22:11 40.1392 -89.4642 228° Southwest 370 426 28,000  Level Chicago Center
22:12 40.0822 -89.5447 227° Southwest 371 427 28,000  Level Kansas City Center
22:13 40.0136 -89.6447 228° Southwest 370 426 28,000  Level Kansas City Center
22:14 39.9436 -89.7442 227° Southwest 370 426 28,000  Level Kansas City Center
22:15 39.8742 -89.8439 228° Southwest 371 427 28,000  Level Kansas City Center
22:16 39.8047 -89.9431 228° Southwest 370 426 28,000 -98 Level Kansas City Center
22:17 39.7353 -90.0417 228° Southwest 370 426 27,800 -545 Descending Kansas City Center
22:18 39.6681 -90.1367 227° Southwest 374 430 26,900 -885 Descending Kansas City Center
22:19 39.5803 -90.2617 228° Southwest 387 445 26,000 -439 Descending Kansas City Center
22:20 39.5056 -90.3678 228° Southwest 396 456 26,000  Level Kansas City Center
22:21 39.4328 -90.4703 227° Southwest 392 451 26,000  Level Kansas City Center
22:22 39.3606 -90.5722 228° Southwest 389 448 26,000  Level Kansas City Center
22:23 39.2883 -90.6728 227° Southwest 386 444 26,000  Level Kansas City Center
22:24 39.2164 -90.7731 227° Southwest 385 443 26,000  Level Kansas City Center
22:25 39.1458 -90.8706 227° Southwest 379 436 26,000  Level Kansas City Center
22:26 39.0719 -90.9703 226° Southwest 384 442 26,000  Level Kansas City Center
22:27 38.9850 -91.0914 227° Southwest 387 445 26,000  Level Kansas City Center
22:28 38.9128 -91.1903 227° Southwest 385 443 26,000  Level Kansas City Center
22:29 38.8397 -91.2922 227° Southwest 388 447 26,000  Level Kansas City Center
22:30 38.7656 -91.3914 226° Southwest 387 445 26,000  Level Kansas City Center
22:31 38.6850 -91.5022 227° Southwest 388 447 26,000  Level Kansas City Center
22:32 38.6097 -91.6025 226° Southwest 389 448 26,000  Level Kansas City Center
22:33 38.5347 -91.7033 226° Southwest 390 449 26,000  Level Kansas City Center
22:34 38.4594 -91.8042 226° Southwest 390 449 26,000  Level Kansas City Center
22:35 38.3842 -91.9050 226° Southwest 391 450 26,000  Level Kansas City Center
22:36 38.3089 -92.0053 226° Southwest 391 450 26,000  Level Kansas City Center
22:37 38.2336 -92.1047 226° Southwest 390 449 26,000  Level Kansas City Center
22:38 38.1528 -92.2117 226° Southwest 392 451 26,000 -800 Level Kansas City Center
22:39 38.0758 -92.3131 226° Southwest 397 457 24,400 -1,815 Descending Kansas City Center
22:40 37.9989 -92.4211 228° Southwest 412 474 22,400 -2,066 Descending Kansas City Center
22:41 37.9283 -92.5392 233° Southwest 396 456 20,200 -1,984 Descending Kansas City Center
22:43 37.8847 -92.6436 242° Southwest 376 433 18,300 -1,756 Descending Kansas City Center
22:44 37.8114 -92.7303 223° Southwest 366 421 16,600 -1,574 Descending Kansas City Center
22:45 37.7361 -92.8172 222° Southwest 346 398 15,100 -1,707 Descending Kansas City Center
22:46 37.6697 -92.8969 224° Southwest 333 383 13,100 -1,935 Descending Kansas City Center
22:47 37.6028 -92.9739 222° Southwest 329 379 11,100 -1,805 Descending Kansas City Center
22:48 37.5383 -93.0478 222° Southwest 322 371 9,400 -1,765 Descending Kansas City Center
22:49 37.4806 -93.1119 221° Southwest 297 342 7,600 -1,785 Descending Kansas City Center
22:50 37.4233 -93.1761 222° Southwest 283 326 5,800 -1,680 Descending Kansas City Center
22:51 37.3564 -93.2203 208° Southwest 285 328 4,100 -942 Descending Kansas City Center
22:52 37.2811 -93.2561 201° Southwest 257 296 3,900 -300 Descending Kansas City Center
22:53 37.2244 -93.2819 200° South 234 269 3,500 -590 Descending Kansas City Center
22:54 37.1631 -93.3103 200° South 230 265 2,700 -541 Descending Kansas City Center
22:55 37.1442 -93.3594 244° Southwest 198 228 2,400 -148 Descending Kansas City Center
22:56 37.1625 -93.4008 299° West 160 184 2,400 -98 Level Kansas City Center
22:57 37.1908 -93.4092 347° North 132 152 2,200 -197 Descending Kansas City Center

Login

Don't have an account? Register now (free) for customized features, flight alerts, and more!